Wiscasset, ME

7:24 AM EDT on October 20, 2017 (GMT -0400)
Wiscasset

Weather History for KIWI - May, 2013

Change the Weather History Date:

Friday, May 24, 2013

  Actual Average Record
Temperature  
Mean Temperature 56 °F -  
Max Temperature 63 °F 62 °F 81 °F (2015)
Min Temperature 51 °F 41 °F 34 °F (1997)
Degree Days  
Heating Degree Days 8    
Growing Degree Days 6 (Base 50)    
Moisture  
Dew Point 57 °F    
Average Humidity 94    
Maximum Humidity 100    
Minimum Humidity 88    
Precipitation  
Precipitation 1.49 in - - ()
Sea Level Pressure  
Sea Level Pressure 29.75 in    
Wind  
Wind Speed 6 mph (SSW)    
Max Wind Speed 13 mph    
Max Gust Speed 21 mph    
Visibility 4 miles    
Events Rain    
Averages and records for this station are not official NWS values.
T = Trace of Precipitation, MM = Missing Value Source: NWS Daily Summary

Daily Weather History Graph

Daily Weather History Graph

Search for Another Location

Airport or City:

Trip Planner

Search our weather history database for the weather conditions in past years. The results will help you decide how hot, cold, wet, or windy it might be!

Date:

Astronomy

May. 24, 2013 Rise Set
Actual Time 5:04 AM EDT 8:07 PM EDT
Civil Twilight 4:29 AM EDT 8:42 PM EDT
Nautical Twilight 3:45 AM EDT 9:26 PM EDT
Astronomical Twilight 2:53 AM EDT 10:19 PM EDT
Moon 7:45 PM EDT (5/24) 4:35 AM EDT (5/24)
Length of Visible Light 16h 12m
Length of Day
15h 03m
Full, 100% of the Moon is Illuminated
May 24
Full
May 25
Full
May 31
Last Quarter
Jun 8
New
Jun 16
First Quarter

Hourly Weather History & Observations

Time (EDT) Temp. Dew Point Humidity Pressure Visibility Wind Dir Wind Speed Gust Speed Precip Events Conditions
12:53 AM 62.1 °F 60.1 °F 93% 29.83 in 3.0 mi South 9.2 mph 18.4 mph 0.06 in Rain Rain
1:45 AM 60.8 °F 59.0 °F 94% 29.80 in 2.5 mi Variable 5.8 mph - 0.14 in Rain Rain
1:53 AM 59.0 °F 57.9 °F 96% 29.79 in 2.5 mi Calm Calm - 0.18 in Rain Rain
2:17 AM 60.8 °F 59.0 °F 94% 29.79 in 4.0 mi South 6.9 mph 19.6 mph 0.11 in Rain Light Rain
2:39 AM 62.6 °F 60.8 °F 94% 29.78 in 2.5 mi SSW 12.7 mph 20.7 mph 0.18 in Rain Rain
2:48 AM 62.6 °F 60.8 °F 94% 29.78 in 5.0 mi SSW 11.5 mph 20.7 mph 0.20 in Rain Rain
2:53 AM 62.1 °F 60.1 °F 93% 29.78 in 4.0 mi SSW 9.2 mph 20.7 mph 0.21 in Rain Rain
3:33 AM 62.6 °F 60.8 °F 94% 29.77 in 7.0 mi SSW 3.5 mph - 0.05 in Rain Light Rain
3:53 AM 62.1 °F 60.1 °F 93% 29.76 in 7.0 mi SSW 8.1 mph - 0.07 in Rain Light Rain
4:53 AM 61.0 °F 59.0 °F 93% 29.75 in 2.5 mi South 9.2 mph - 0.13 in Rain Heavy Rain
5:04 AM 60.8 °F 60.8 °F 100% 29.75 in 3.0 mi South 5.8 mph - 0.05 in Rain Rain
5:34 AM 59.0 °F 57.2 °F 94% 29.74 in 4.0 mi SSW 3.5 mph - 0.11 in Rain Light Rain
5:53 AM 60.1 °F 59.0 °F 96% 29.74 in 6.0 mi Calm Calm - 0.12 in Rain Light Rain
6:06 AM 60.8 °F 59.0 °F 94% 29.73 in 2.0 mi Variable 3.5 mph - 0.06 in Rain Rain
6:16 AM 60.8 °F 57.2 °F 88% 29.73 in 3.0 mi South 8.1 mph - 0.08 in Rain Rain
6:26 AM 59.0 °F 57.2 °F 94% 29.72 in 2.0 mi South 6.9 mph 16.1 mph 0.12 in Rain Rain
6:38 AM 59.0 °F 57.2 °F 94% 29.71 in 1.8 mi SSW 4.6 mph - 0.18 in Rain Rain
6:53 AM 59.0 °F 57.9 °F 96% 29.69 in 1.0 mi Calm Calm - 0.32 in Rain Heavy Rain
6:56 AM 59.0 °F 57.2 °F 94% 29.68 in 0.8 mi East 3.5 mph - 0.05 in Rain Heavy Rain
7:03 AM 59.0 °F 57.2 °F 94% 29.67 in 1.0 mi Calm Calm - 0.10 in Rain Heavy Rain
7:10 AM 59.0 °F 57.2 °F 94% 29.67 in 1.0 mi Calm Calm - 0.13 in Rain Rain
7:18 AM 60.8 °F 59.0 °F 94% 29.67 in 1.2 mi Calm Calm - 0.15 in Rain Light Rain
7:43 AM 60.8 °F 57.2 °F 88% 29.66 in 0.8 mi South 9.2 mph - 0.19 in Rain Light Rain
7:50 AM 60.8 °F 57.2 °F 88% 29.67 in 1.0 mi Variable 4.6 mph - 0.20 in Rain Light Rain
7:53 AM 60.1 °F 57.9 °F 93% 29.67 in 1.2 mi Variable 4.6 mph - 0.20 in Rain Light Rain
8:01 AM 60.8 °F 57.2 °F 88% 29.67 in 1.5 mi Variable 5.8 mph - 0.00 in   Overcast
8:22 AM 60.8 °F 59.0 °F 94% 29.68 in 2.5 mi SSW 8.1 mph - 0.00 in   Overcast
8:35 AM 60.8 °F 59.0 °F 94% 29.68 in 2.0 mi SW 8.1 mph - 0.00 in   Overcast
8:53 AM 60.1 °F 57.9 °F 93% 29.69 in 2.5 mi SSW 11.5 mph 19.6 mph 0.01 in   Overcast
9:05 AM 60.8 °F 57.2 °F 88% 29.70 in 3.0 mi SSW 10.4 mph 17.3 mph N/A   Overcast
9:12 AM 59.0 °F 57.2 °F 94% 29.70 in 2.0 mi SSW 8.1 mph 16.1 mph N/A   Overcast
9:30 AM 60.8 °F 59.0 °F 94% 29.70 in 3.0 mi SSW 5.8 mph - N/A   Overcast
9:40 AM 60.8 °F 59.0 °F 94% 29.71 in 1.8 mi SSW 6.9 mph - N/A   Overcast
9:53 AM 60.1 °F 60.1 °F 100% 29.71 in 1.8 mi SSW 8.1 mph - N/A   Overcast
10:04 AM 60.8 °F 60.8 °F 100% 29.72 in 2.5 mi SSW 5.8 mph - N/A   Overcast
10:13 AM 60.8 °F 60.8 °F 100% 29.72 in 1.2 mi SW 6.9 mph - N/A   Overcast
10:53 AM 60.1 °F 59.0 °F 96% 29.73 in 0.8 mi SW 11.5 mph 17.3 mph N/A   Overcast
11:06 AM 60.8 °F 60.8 °F 100% 29.73 in 1.5 mi SW 4.6 mph - N/A   Overcast
11:28 AM 60.8 °F 60.8 °F 100% 29.73 in 2.0 mi Variable 6.9 mph - N/A   Overcast
11:44 AM 60.8 °F 60.8 °F 100% 29.74 in 4.0 mi South 5.8 mph - N/A   Overcast
11:53 AM 60.1 °F 59.0 °F 96% 29.74 in 2.5 mi SSW 8.1 mph - 0.00 in Rain Light Rain
12:12 PM 60.8 °F 59.0 °F 94% 29.74 in 3.0 mi SSW 6.9 mph - 0.00 in   Overcast
12:53 PM 61.0 °F 60.1 °F 97% 29.73 in 3.0 mi South 3.5 mph - 0.00 in   Overcast
1:25 PM 60.8 °F 60.8 °F 100% 29.74 in 2.0 mi SSE 5.8 mph - 0.00 in Rain Light Rain
1:37 PM 60.8 °F 59.0 °F 94% 29.74 in 1.5 mi SSE 4.6 mph - 0.01 in Rain Light Rain
1:53 PM 60.1 °F 59.0 °F 96% 29.75 in 1.8 mi SSE 3.5 mph - 0.01 in   Overcast
2:03 PM 60.8 °F 57.2 °F 88% 29.75 in 1.0 mi SE 4.6 mph - N/A   Overcast
2:24 PM 59.0 °F 57.2 °F 94% 29.75 in 1.8 mi SE 4.6 mph - 0.01 in Rain Light Rain
2:32 PM 59.0 °F 57.2 °F 94% 29.75 in 2.5 mi SE 4.6 mph - 0.01 in Rain Light Rain
2:43 PM 57.2 °F 57.2 °F 100% 29.74 in 4.0 mi SE 3.5 mph - 0.02 in Rain Light Rain
2:53 PM 59.0 °F 57.9 °F 96% 29.74 in 5.0 mi Calm Calm - 0.02 in Rain Light Rain
3:53 PM 61.0 °F 59.0 °F 93% 29.72 in 10.0 mi Calm Calm - 0.02 in Rain Light Rain
4:53 PM 61.0 °F 60.1 °F 97% 29.74 in 8.0 mi Calm Calm - 0.01 in Rain Light Rain
5:07 PM 62.6 °F 60.8 °F 94% 29.74 in 1.8 mi WNW 3.5 mph - 0.01 in Rain Light Rain
5:21 PM 59.0 °F 57.2 °F 94% 29.75 in 2.0 mi North 8.1 mph - 0.04 in Rain Light Rain
5:25 PM 57.2 °F 55.4 °F 94% 29.75 in 4.0 mi Variable 6.9 mph - 0.04 in Rain Light Rain
5:53 PM 57.0 °F 54.0 °F 89% 29.77 in 10.0 mi NNW 9.2 mph - 0.04 in   Overcast
6:53 PM 55.0 °F 52.0 °F 89% 29.81 in 10.0 mi Calm Calm - N/A   Overcast
7:01 PM 55.4 °F 51.8 °F 88% 29.81 in 10.0 mi Variable 3.5 mph - N/A   Overcast
7:53 PM 53.1 °F 51.1 °F 93% 29.84 in 7.0 mi Calm Calm - N/A   Overcast
8:29 PM 51.8 °F 50.0 °F 94% 29.83 in 3.0 mi Variable 5.8 mph - 0.06 in Rain Rain
8:43 PM 51.8 °F 50.0 °F 94% 29.83 in 6.0 mi Variable 4.6 mph - 0.07 in Rain Light Rain
8:45 PM 51.8 °F 50.0 °F 94% 29.83 in 6.0 mi Variable 3.5 mph - 0.07 in Rain Light Rain
8:53 PM 52.0 °F 50.0 °F 93% 29.84 in 6.0 mi Variable 6.9 mph - 0.07 in Rain Light Rain
9:36 PM 51.8 °F 50.0 °F 94% 29.84 in 8.0 mi Variable 6.9 mph - 0.02 in Rain Light Rain
9:53 PM 52.0 °F 50.0 °F 93% 29.84 in 10.0 mi Variable 5.8 mph - 0.02 in Rain Light Rain
10:10 PM 51.8 °F 48.2 °F 88% 29.84 in 10.0 mi North 10.4 mph 19.6 mph 0.00 in   Overcast
10:53 PM 51.1 °F 48.9 °F 92% 29.85 in 10.0 mi Variable 6.9 mph - 0.00 in   Overcast
11:53 PM 51.1 °F 48.0 °F 89% 29.83 in 10.0 mi Variable 4.6 mph - N/A   Overcast